Amsterdam, Netherlands

9:07 AM CEST on September 20, 2017 (GMT +0200)
Schiphol

Weather History for EHAM - October, 2013

Change the Weather History Date:

Thursday, October 31, 2013

  Actual Average Record
Temperature  
Mean Temperature 50 °F -  
Max Temperature 55 °F 48 °F 64 °F (2005)
Min Temperature 45 °F 39 °F 30 °F (1997)
Degree Days  
Heating Degree Days 15    
Moisture  
Dew Point 46 °F    
Average Humidity 86    
Maximum Humidity 94    
Minimum Humidity 66    
Precipitation  
Precipitation 0.01 in - - ()
Sea Level Pressure  
Sea Level Pressure 30.08 in    
Wind  
Wind Speed 14 mph ()    
Max Wind Speed 22 mph    
Max Gust Speed -    
Visibility 7.3 miles    
Events Rain    
Averages and records for this station are not official NWS values.
T = Trace of Precipitation, MM = Missing Value Source: Averaged Metar Reports

Daily Weather History Graph

Daily Weather History Graph

Search for Another Location

Airport or City:

Trip Planner

Search our weather history database for the weather conditions in past years. The results will help you decide how hot, cold, wet, or windy it might be!

Date:

Astronomy

Oct. 31, 2013 Rise Set
Actual Time 7:34 AM CET 5:13 PM CET
Civil Twilight 6:59 AM CET 5:49 PM CET
Nautical Twilight 6:18 AM CET 6:29 PM CET
Astronomical Twilight 5:39 AM CET 7:08 PM CET
Moon 3:44 AM CET (10/31) 3:42 PM CET (10/31)
Length of Visible Light 10h 50m
Length of Day
9h 38m
Waning Crescent, 11% of the Moon is Illuminated
Oct 31
Waning Crescent
Nov 3
New
Nov 10
First Quarter
Nov 17
Full
Nov 25
Last Quarter

Hourly Weather History & Observations

Time (CET) Temp. Windchill Dew Point Humidity Pressure Visibility Wind Dir Wind Speed Gust Speed Precip Events Conditions
12:25 AM 48.2 °F - 44.6 °F 87% 30.18 in - South 12.7 mph - N/A   Clear
12:55 AM 48.2 °F - 44.6 °F 87% 30.18 in - South 15.0 mph - N/A   Clear
1:00 AM 48 °F - 45 °F 84% 30.19 in 14 mi South 15.7 mph - -   Partly Cloudy
1:25 AM 48.2 °F - 44.6 °F 87% 30.18 in - South 13.8 mph - N/A   Clear
1:55 AM 48.2 °F - 44.6 °F 87% 30.18 in - South 12.7 mph - N/A   Clear
2:25 AM 46.4 °F 40.4 °F 44.6 °F 93% 30.18 in - South 13.8 mph - N/A   Clear
2:55 AM 46.4 °F 40.7 °F 44.6 °F 93% 30.15 in - South 12.7 mph - N/A   Clear
3:25 AM 46.4 °F 40.4 °F 42.8 °F 87% 30.15 in - South 13.8 mph - N/A   Clear
3:55 AM 46.4 °F 40.7 °F 44.6 °F 93% 30.15 in - South 12.7 mph - N/A   Clear
4:00 AM 47 °F - 44 °F 84% 30.17 in 14 mi South 13.4 mph - -   Partly Cloudy
4:25 AM 46.4 °F 40.7 °F 44.6 °F 93% 30.15 in - South 12.7 mph - N/A   Clear
4:55 AM 48.2 °F - 44.6 °F 87% 30.15 in - South 13.8 mph - N/A   Clear
5:25 AM 48.2 °F - 44.6 °F 87% 30.12 in - South 13.8 mph - N/A   Clear
5:55 AM 46.4 °F 40.7 °F 44.6 °F 93% 30.12 in - South 12.7 mph - N/A   Clear
6:25 AM 46.4 °F 40.4 °F 42.8 °F 87% 30.12 in - South 13.8 mph - N/A   Clear
6:55 AM 46.4 °F 40.4 °F 42.8 °F 87% 30.12 in - South 13.8 mph - N/A   Clear
7:00 AM 47 °F - 43 °F 82% 30.14 in 12 mi South 13.4 mph - -   Partly Cloudy
7:25 AM 46.4 °F 39.8 °F 42.8 °F 87% 30.12 in - South 16.1 mph - N/A   Clear
7:55 AM 46.4 °F 40.4 °F 42.8 °F 87% 30.12 in - South 13.8 mph - N/A   Clear
8:25 AM 46.4 °F 40.4 °F 44.6 °F 93% 30.12 in 6.2 mi South 13.8 mph - N/A   Scattered Clouds
8:55 AM 48.2 °F - 44.6 °F 87% 30.12 in 6.2 mi South 16.1 mph - N/A   Mostly Cloudy
9:25 AM 48.2 °F - 44.6 °F 87% 30.12 in 6.2 mi South 15.0 mph - N/A   Mostly Cloudy
9:55 AM 50.0 °F - 44.6 °F 82% 30.09 in 6.2 mi South 13.8 mph - N/A   Mostly Cloudy
10:00 AM 49 °F - 45 °F 81% 30.12 in 16 mi South 15.7 mph - -   Overcast
10:25 AM 50.0 °F - 44.6 °F 82% 30.12 in 6.2 mi South 16.1 mph - N/A   Mostly Cloudy
10:55 AM 50.0 °F - 44.6 °F 82% 30.09 in 6.2 mi South 16.1 mph - N/A   Mostly Cloudy
11:25 AM 51.8 °F - 46.4 °F 82% 30.09 in 6.2 mi South 17.3 mph - N/A   Mostly Cloudy
11:55 AM 51.8 °F - 46.4 °F 82% 30.09 in 6.2 mi South 18.4 mph - N/A   Mostly Cloudy
12:25 PM 53.6 °F - 46.4 °F 77% 30.09 in 6.2 mi South 16.1 mph - N/A   Scattered Clouds
12:55 PM 53.6 °F - 46.4 °F 77% 30.06 in 6.2 mi South 16.1 mph - N/A   Partly Cloudy
1:25 PM 53.6 °F - 48.2 °F 82% 30.06 in 6.2 mi SSW 18.4 mph - N/A Rain Light Rain
1:55 PM 53.6 °F - 48.2 °F 82% 30.04 in - South 17.3 mph - N/A   Clear
2:25 PM 55.4 °F - 48.2 °F 77% 30.04 in 6.2 mi SSW 21.9 mph - N/A Rain Light Rain
2:55 PM 53.6 °F - 48.2 °F 82% 30.04 in 6.2 mi SSW 16.1 mph - N/A Rain Light Rain
3:25 PM 53.6 °F - 46.4 °F 77% 30.04 in 6.2 mi South 17.3 mph - N/A   Scattered Clouds
3:55 PM 55.4 °F - 46.4 °F 72% 30.01 in 6.2 mi South 17.3 mph - N/A   Mostly Cloudy
4:00 PM 55 °F - 47 °F 66% 30.03 in 22 mi SSW 17.9 mph - -   Partly Cloudy
4:25 PM 55.4 °F - 46.4 °F 72% 30.01 in 6.2 mi SSW 18.4 mph - N/A   Mostly Cloudy
4:55 PM 55.4 °F - 46.4 °F 72% 30.01 in 6.2 mi SSW 21.9 mph - N/A   Overcast
5:25 PM 53.6 °F - 48.2 °F 82% 30.01 in 5.6 mi SSW 21.9 mph - N/A   Mostly Cloudy
5:55 PM 53.6 °F - 48.2 °F 82% 30.01 in 6.2 mi SSW 21.9 mph - N/A   Overcast
6:25 PM 53.6 °F - 48.2 °F 82% 30.01 in 5.6 mi SSW 18.4 mph - N/A Rain Light Rain
6:55 PM 51.8 °F - 50.0 °F 94% 30.01 in 6.2 mi SSW 19.6 mph - N/A   Overcast
7:00 PM 52 °F - 49 °F 85% 30.02 in 11 mi SSW 17.9 mph - - Rain Rain
7:25 PM 51.8 °F - 48.2 °F 88% 30.01 in 6.2 mi SSW 17.3 mph - N/A Rain Light Rain
7:55 PM 51.8 °F - 50.0 °F 94% 30.01 in 5.6 mi SSW 19.6 mph - N/A Rain Light Rain
8:25 PM 51.8 °F - 50.0 °F 94% 29.98 in 5.6 mi SSW 13.8 mph - N/A Rain Light Rain
8:55 PM 51.8 °F - 50.0 °F 94% 29.98 in 6.2 mi SSW 12.7 mph - N/A   Scattered Clouds
9:25 PM 51.8 °F - 50.0 °F 94% 29.98 in 6.2 mi SW 13.8 mph - N/A   Partly Cloudy
9:55 PM 51.8 °F - 50.0 °F 94% 29.98 in 6.2 mi SW 13.8 mph - N/A   Partly Cloudy
10:00 PM 52 °F - 50 °F 89% 30.00 in 15 mi SSW 11.2 mph - - Rain Drizzle
10:25 PM 51.8 °F - 50.0 °F 94% 29.98 in 6.2 mi SSW 13.8 mph - N/A   Scattered Clouds
10:55 PM 51.8 °F - 50.0 °F 94% 29.98 in 6.2 mi SSW 17.3 mph - N/A   Partly Cloudy
11:25 PM 51.8 °F - 50.0 °F 94% 29.98 in 6.2 mi SSW 16.1 mph - N/A   Partly Cloudy
11:55 PM 51.8 °F - 50.0 °F 94% 29.98 in 6.2 mi SSW 16.1 mph - N/A   Partly Cloudy